Miscellaneous Local Product
Issued by NWS Hastings, NE

Home | Current Version | Previous Version | Graphics & Text | Print | Product List | Glossary On
Versions: 1 2 3 4 5 6 7 8 9 10 11 12 13 14 15 16 17 18 19 20 21 22 23 24 25 26 27 28 29 30 31 32 33 34 35 36 37 38 39 40 41 42 43 44 45 46 47 48 49 50
000
AXUS43 KGID 190402
MISGRI

GID CWA HOURLY WEATHER ROUNDUP
NATIONAL WEATHER SERVICE HASTINGS NE
1000 PM CST THU DEC 18 2014

NOTE: "FAIR" INDICATES FEW OR NO CLOUDS BELOW 12,000 FEET WITH NO
SIGNIFICANT WEATHER AND/OR OBSTRUCTIONS TO VISIBILITY.

...SOUTH CENTRAL NEBRASKA...

CITY           SKY/WX    TMP DP  RH WIND       PRES   REMARKS
GRAND ISLAND   CLOUDY    29  24  82 SW8       30.19R WCI  21
HASTINGS       CLOUDY    30  24  78 SW6       30.17S WCI  24
KEARNEY        CLOUDY    28  25  86 SW6       30.17R WCI  22
ORD            CLOUDY    28  25  88 S3        30.14S
YORK           MOCLDY    28  27  93 S6        30.20R WCI  22
AURORA         CLOUDY    30  28  95 S6        30.18S WCI  24
LEXINGTON      CLOUDY    30  28  92 SW7       30.14S WCI  23
HOLDREGE       CLOUDY    28  26  92 SW5       30.16R WCI  23
HEBRON         CLOUDY    30  26  86 CALM      30.22S

...NEBRASKA PANHANDLE...

CITY           SKY/WX    TMP DP  RH WIND       PRES   REMARKS
CHADRON        PTCLDY    24  17  74 SW12      30.07R WCI  13
ALLIANCE       MOCLDY    11   8  88 W8        30.06S WCI  -1
SCOTTSBLUFF    CLOUDY    12   8  84 NE3       30.08S
SIDNEY         CLOUDY    26  19  74 W9        30.09R WCI  17

...WESTERN AND NORTH CENTRAL NEBRASKA...

CITY           SKY/WX    TMP DP  RH WIND       PRES   REMARKS
VALENTINE      MOCLDY    12  10  92 SW5       30.08R FOG     WCI   4
AINSWORTH      MOCLDY    19  18  96 S6        30.08S FOG     WCI  11
ONEILL         CLOUDY    29  28  95 S5        30.13S WCI  24
BROKEN BOW     CLOUDY    28  26  92 SW9       30.12R FOG     WCI  19
IMPERIAL       PTCLDY    18  16  92 CALM      30.11R FOG
NORTH PLATTE   FOG       21  20  96 SW5       30.12S VSB 1/4 WCI  15
MCCOOK         CLOUDY    28  26  92 SW6       30.15R FOG     WCI  22

...EASTERN NEBRASKA...

CITY           SKY/WX    TMP DP  RH WIND       PRES   REMARKS
NORFOLK        CLOUDY    29  25  85 S6        30.18R WCI  23
SO SIOUX CITY  CLOUDY    30  26  85 S9        30.22R WCI  22
TEKAMAH        CLOUDY    31  27  85 SE6       30.23R WCI  25
COLUMBUS       CLOUDY    28  23  80 S6        30.21S WCI  22
ALBION         CLOUDY    29  25  86 S5        30.17S WCI  24
OMAHA EPPLEY   CLOUDY    31  27  85 S7        30.25S WCI  24
OFFUTT AFB     CLOUDY    30  27  89 SE7       30.24R WCI  23
MILLARD        CLOUDY    31  27  86 SE6       30.23S WCI  25
LINCOLN        CLOUDY    31  28  89 S7        30.24R WCI  24
NEBRASKA CITY  CLOUDY    30  30  99 S5        30.24R FOG     WCI  25
BEATRICE       CLOUDY    31  28  90 S5        30.22R WCI  26
FALLS CITY     CLOUDY    30  27  88 CALM      30.25R

...NORTHERN KANSAS...

CITY           SKY/WX    TMP DP  RH WIND       PRES   REMARKS
GOODLAND       CLEAR     24  22  91 W6        30.10F WCI  17
HILL CITY      CLOUDY    33  28  81 CALM      30.17S
NORTON         CLOUDY    34  27  75 SW5       30.15S WCI  30
PHILLIPSBURG   CLOUDY    34  30  86 S3        30.19S
SMITH CENTER   CLOUDY    28  27  93 SE6       30.20S WCI  22
BELOIT         CLOUDY    28  28 100 CALM      30.23R
HAYS           CLOUDY    34  25  69 S6        30.19R WCI  29
RUSSELL        CLOUDY    30  29  96 S7        30.19R WCI  23
CONCORDIA      CLOUDY    29  26  89 SW5       30.23R WCI  24
SALINA         CLOUDY    31  26  82 CALM      30.25R
TOPEKA         CLOUDY    33  28  81 NE3       30.26S



USA.gov is the U.S. government's official web portal to all federal, state and local government web resources and services.